Time,TemperatureF,DewpointF,PressureIn,WindDirection,WindDirectionDegrees,WindSpeedMPH,WindSpeedGustMPH,Humidity,HourlyPrecipIn,Conditions,Clouds,dailyrainin,SolarRadiationWatts/m^2,SoftwareType,DateUTC
2013-02-23 00:01:00,33.6,32.6,29.77,SE,128,2.2,3.5,96,0.00,RA,,0.00,0.0,WeatherDisplay:10.37,2013-02-22 23:01:00,
2013-02-23 00:06:00,33.6,32.6,29.77,ESE,108,1.0,3.5,96,0.00,RA,,0.00,0.0,WeatherDisplay:10.37,2013-02-22 23:06:00,
2013-02-23 00:11:00,33.6,32.6,29.77,East,96,4.0,8.1,96,0.00,BKN,,0.00,0.0,WeatherDisplay:10.37,2013-02-22 23:11:00,
2013-02-23 00:16:00,33.6,32.6,29.77,ESE,102,4.0,9.2,96,0.00,BKN,,0.00,0.0,WeatherDisplay:10.37,2013-02-22 23:16:00,
2013-02-23 00:21:00,33.5,32.5,29.77,ESE,109,3.3,6.0,96,0.00,BKN,,0.00,0.0,WeatherDisplay:10.37,2013-02-22 23:21:00,
2013-02-23 00:26:00,33.6,32.6,29.77,East,89,2.9,8.1,96,0.00,BKN,,0.00,0.0,WeatherDisplay:10.37,2013-02-22 23:26:00,
2013-02-23 00:31:00,33.6,32.6,29.77,ENE,65,5.5,10.4,96,0.00,BKN,,0.00,0.0,WeatherDisplay:10.37,2013-02-22 23:31:00,
2013-02-23 00:36:00,33.6,32.6,29.77,SE,128,3.8,7.0,96,0.00,BKN,,0.00,0.0,WeatherDisplay:10.37,2013-02-22 23:36:00,
2013-02-23 00:42:00,33.6,32.6,29.77,ENE,61,4.0,7.0,96,0.00,BKN,,0.00,0.0,WeatherDisplay:10.37,2013-02-22 23:42:00,
2013-02-23 00:47:00,33.6,32.6,29.77,East,85,3.9,9.2,96,0.00,BKN,,0.00,0.0,WeatherDisplay:10.37,2013-02-22 23:47:00,
2013-02-23 00:52:00,33.6,32.6,29.77,East,87,5.2,10.4,96,0.00,BKN,,0.00,0.0,WeatherDisplay:10.37,2013-02-22 23:52:00,
2013-02-23 00:57:00,33.6,32.6,29.76,ENE,66,3.6,11.5,96,0.00,BKN,,0.00,0.0,WeatherDisplay:10.37,2013-02-22 23:57:00,
2013-02-23 01:02:00,33.6,32.6,29.76,ESE,109,4.6,9.2,96,0.00,BKN,,0.00,0.0,WeatherDisplay:10.37,2013-02-23 00:02:00,
2013-02-23 01:07:00,33.6,32.6,29.76,ENE,78,5.1,9.2,96,0.00,BKN,,0.00,0.0,WeatherDisplay:10.37,2013-02-23 00:07:00,
2013-02-23 01:12:00,33.6,32.6,29.76,ESE,105,4.6,10.4,96,0.00,BKN,,0.00,0.0,WeatherDisplay:10.37,2013-02-23 00:12:00,
2013-02-23 01:17:00,33.7,32.9,29.76,ESE,123,4.1,8.1,97,0.00,BKN,,0.00,0.0,WeatherDisplay:10.37,2013-02-23 00:17:00,
2013-02-23 01:22:00,33.7,32.9,29.76,NE,56,3.0,10.4,97,0.00,BKN,,0.00,0.0,WeatherDisplay:10.37,2013-02-23 00:22:00,
2013-02-23 01:27:00,33.7,32.9,29.76,East,84,6.0,9.2,97,0.00,BKN,,0.00,0.0,WeatherDisplay:10.37,2013-02-23 00:27:00,
2013-02-23 01:32:00,33.6,32.8,29.76,East,96,5.8,9.2,97,0.00,BKN,,0.00,0.0,WeatherDisplay:10.37,2013-02-23 00:32:00,
2013-02-23 01:37:00,33.7,32.9,29.76,ENE,72,7.4,11.5,97,0.00,BKN,,0.00,0.0,WeatherDisplay:10.37,2013-02-23 00:37:00,
2013-02-23 01:42:00,33.7,32.9,29.77,East,88,6.3,10.4,97,0.00,BKN,,0.00,0.0,WeatherDisplay:10.37,2013-02-23 00:42:00,
2013-02-23 01:47:00,33.7,32.9,29.77,ESE,102,4.5,10.4,97,0.00,BKN,,0.00,0.0,WeatherDisplay:10.37,2013-02-23 00:47:00,
2013-02-23 01:52:00,33.7,32.9,29.77,ESE,119,7.5,11.5,97,0.00,BKN,,0.00,0.0,WeatherDisplay:10.37,2013-02-23 00:52:00,
2013-02-23 01:57:00,33.8,33.0,29.77,ESE,105,5.8,10.4,97,0.00,BKN,,0.00,0.0,WeatherDisplay:10.37,2013-02-23 00:57:00,
2013-02-23 02:02:00,33.8,33.0,29.76,ESE,118,6.9,10.4,97,0.00,BKN,,0.00,0.0,WeatherDisplay:10.37,2013-02-23 01:02:00,
2013-02-23 02:07:00,33.9,33.1,29.76,ESE,117,7.1,11.5,97,0.00,BKN,,0.00,0.0,WeatherDisplay:10.37,2013-02-23 01:07:00,
2013-02-23 02:12:00,33.9,33.1,29.76,SE,126,5.5,11.5,97,0.00,BKN,,0.00,0.0,WeatherDisplay:10.37,2013-02-23 01:12:00,
2013-02-23 02:17:00,33.9,33.1,29.76,ESE,123,4.4,8.1,97,0.00,BKN,,0.00,0.0,WeatherDisplay:10.37,2013-02-23 01:17:00,
2013-02-23 02:22:00,33.9,33.1,29.76,ESE,107,3.2,8.1,97,0.01,RA,,0.01,0.0,WeatherDisplay:10.37,2013-02-23 01:22:00,
2013-02-23 02:27:00,33.9,33.1,29.76,ESE,123,4.4,10.4,97,0.01,RA,,0.01,0.0,WeatherDisplay:10.37,2013-02-23 01:27:00,
2013-02-23 02:33:00,33.9,33.1,29.75,ESE,114,6.0,11.5,97,0.01,BKN,,0.01,0.0,WeatherDisplay:10.37,2013-02-23 01:33:00,
2013-02-23 02:38:00,33.9,33.1,29.75,East,93,7.2,15.0,97,0.01,BKN,,0.01,0.0,WeatherDisplay:10.37,2013-02-23 01:38:00,
2013-02-23 02:43:00,33.9,33.1,29.75,NE,49,2.4,9.2,97,0.01,BKN,,0.01,0.0,WeatherDisplay:10.37,2013-02-23 01:43:00,
2013-02-23 02:48:00,34.0,33.2,29.75,East,88,6.2,13.0,97,0.01,BKN,,0.01,0.0,WeatherDisplay:10.37,2013-02-23 01:48:00,
2013-02-23 02:53:00,34.0,33.2,29.75,ENE,77,6.3,12.7,97,0.01,BKN,,0.01,0.0,WeatherDisplay:10.37,2013-02-23 01:53:00,
2013-02-23 02:58:00,34.0,33.2,29.75,East,81,5.0,13.8,97,0.01,BKN,,0.01,0.0,WeatherDisplay:10.37,2013-02-23 01:58:00,
2013-02-23 03:03:00,34.1,33.3,29.74,ENE,71,6.9,12.7,97,0.01,BKN,,0.01,0.0,WeatherDisplay:10.37,2013-02-23 02:03:00,
2013-02-23 03:08:00,34.1,33.3,29.74,ENE,71,8.8,14.0,97,0.01,BKN,,0.01,0.0,WeatherDisplay:10.37,2013-02-23 02:08:00,
2013-02-23 03:13:00,34.1,33.3,29.74,East,96,6.1,15.0,97,0.02,RA,,0.02,0.0,WeatherDisplay:10.37,2013-02-23 02:13:00,
2013-02-23 03:18:00,34.1,33.3,29.74,ESE,102,5.2,13.0,97,0.02,RA,,0.02,0.0,WeatherDisplay:10.37,2013-02-23 02:18:00,
2013-02-23 03:23:00,34.1,33.3,29.74,East,84,4.7,10.4,97,0.01,BKN,,0.02,0.0,WeatherDisplay:10.37,2013-02-23 02:23:00,
2013-02-23 03:28:00,34.1,33.3,29.74,ESE,108,4.7,10.4,97,0.01,BKN,,0.02,0.0,WeatherDisplay:10.37,2013-02-23 02:28:00,
2013-02-23 03:33:00,34.1,33.3,29.73,ESE,103,6.7,11.5,97,0.01,BKN,,0.02,0.0,WeatherDisplay:10.37,2013-02-23 02:33:00,
2013-02-23 03:38:00,34.1,33.3,29.73,ESE,105,5.4,10.4,97,0.01,BKN,,0.02,0.0,WeatherDisplay:10.37,2013-02-23 02:38:00,
2013-02-23 03:43:00,34.1,33.3,29.72,ENE,78,7.2,13.8,97,0.01,BKN,,0.02,0.0,WeatherDisplay:10.37,2013-02-23 02:43:00,
2013-02-23 03:48:00,34.1,33.3,29.72,ESE,103,7.1,13.8,97,0.01,BKN,,0.02,0.0,WeatherDisplay:10.37,2013-02-23 02:48:00,
2013-02-23 03:53:00,34.2,33.4,29.73,ESE,105,10.6,13.8,97,0.01,BKN,,0.02,0.0,WeatherDisplay:10.37,2013-02-23 02:53:00,
2013-02-23 03:58:00,34.2,33.4,29.73,ESE,112,3.9,11.5,97,0.01,BKN,,0.02,0.0,WeatherDisplay:10.37,2013-02-23 02:58:00,
2013-02-23 04:03:00,34.3,33.5,29.73,ENE,65,6.2,12.7,97,0.01,BKN,,0.02,0.0,WeatherDisplay:10.37,2013-02-23 03:03:00,
2013-02-23 04:08:00,34.3,33.5,29.73,ENE,67,6.7,11.5,97,0.01,BKN,,0.02,0.0,WeatherDisplay:10.37,2013-02-23 03:08:00,
2013-02-23 04:13:00,34.4,33.6,29.73,ENE,69,5.0,9.2,97,0.00,BKN,,0.02,0.0,WeatherDisplay:10.37,2013-02-23 03:13:00,
2013-02-23 04:18:00,34.4,33.6,29.72,ESE,105,7.2,11.5,97,0.00,BKN,,0.02,0.0,WeatherDisplay:10.37,2013-02-23 03:18:00,
2013-02-23 04:23:00,34.4,33.6,29.73,ENE,77,5.7,11.5,97,0.00,BKN,,0.02,0.0,WeatherDisplay:10.37,2013-02-23 03:23:00,
2013-02-23 04:28:00,34.5,33.7,29.72,East,83,4.8,12.7,97,0.00,BKN,,0.02,0.0,WeatherDisplay:10.37,2013-02-23 03:28:00,
2013-02-23 04:33:00,34.6,33.8,29.72,SE,144,4.7,10.4,97,0.00,BKN,,0.02,0.0,WeatherDisplay:10.37,2013-02-23 03:33:00,
2013-02-23 04:38:00,34.7,33.9,29.72,ESE,107,6.4,11.5,97,0.00,BKN,,0.02,0.0,WeatherDisplay:10.37,2013-02-23 03:38:00,
2013-02-23 04:43:00,34.7,33.9,29.72,East,93,7.2,15.0,97,0.00,BKN,,0.02,0.0,WeatherDisplay:10.37,2013-02-23 03:43:00,
2013-02-23 04:48:00,34.7,33.9,29.72,NE,35,5.3,16.1,97,0.00,BKN,,0.02,0.0,WeatherDisplay:10.37,2013-02-23 03:48:00,
2013-02-23 04:53:00,34.7,33.9,29.71,ENE,71,7.4,13.0,97,0.00,BKN,,0.02,0.0,WeatherDisplay:10.37,2013-02-23 03:53:00,
2013-02-23 04:58:00,34.7,33.9,29.71,ENE,67,7.9,11.5,97,0.00,BKN,,0.02,0.0,WeatherDisplay:10.37,2013-02-23 03:58:00,
2013-02-23 05:03:00,34.8,34.0,29.72,East,101,7.9,15.0,97,0.00,BKN,,0.02,0.0,WeatherDisplay:10.37,2013-02-23 04:03:00,
2013-02-23 05:08:00,34.8,34.0,29.72,East,93,5.1,11.5,97,0.00,BKN,,0.02,0.0,WeatherDisplay:10.37,2013-02-23 04:08:00,
2013-02-23 05:13:00,34.8,34.0,29.71,East,100,5.7,15.0,97,0.00,BKN,,0.02,0.0,WeatherDisplay:10.37,2013-02-23 04:13:00,
2013-02-23 05:18:00,34.8,34.0,29.71,East,84,6.2,13.8,97,0.00,BKN,,0.02,0.0,WeatherDisplay:10.37,2013-02-23 04:18:00,
2013-02-23 05:23:00,34.9,34.1,29.71,East,93,4.7,10.4,97,0.00,BKN,,0.02,0.0,WeatherDisplay:10.37,2013-02-23 04:23:00,
2013-02-23 05:28:00,34.9,34.1,29.71,East,92,6.0,14.0,97,0.00,BKN,,0.02,0.0,WeatherDisplay:10.37,2013-02-23 04:28:00,
2013-02-23 05:33:00,34.9,34.1,29.71,ESE,106,6.9,13.0,97,0.00,BKN,,0.02,0.0,WeatherDisplay:10.37,2013-02-23 04:33:00,
2013-02-23 05:38:00,35.0,34.2,29.71,ESE,116,8.3,12.7,97,0.00,BKN,,0.02,0.0,WeatherDisplay:10.37,2013-02-23 04:38:00,
2013-02-23 05:43:00,35.0,34.2,29.71,East,94,10.3,14.0,97,0.00,BKN,,0.02,0.0,WeatherDisplay:10.37,2013-02-23 04:43:00,
2013-02-23 05:48:00,35.1,34.3,29.71,South,174,5.3,13.8,97,0.00,BKN,,0.02,0.0,WeatherDisplay:10.37,2013-02-23 04:48:00,
2013-02-23 05:53:00,35.2,34.4,29.71,ENE,77,7.5,11.5,97,0.00,BKN,,0.02,0.0,WeatherDisplay:10.37,2013-02-23 04:53:00,
2013-02-23 05:58:00,35.2,34.4,29.71,East,84,6.8,15.0,97,0.00,BKN,,0.02,0.0,WeatherDisplay:10.37,2013-02-23 04:58:00,
2013-02-23 06:00:00,35.2,34.4,29.71,East,92,10.3,18.0,97,0.00,BKN,,0.02,0.0,WeatherDisplay:10.37,2013-02-23 05:00:00,
2013-02-23 06:05:00,35.3,34.5,29.71,East,94,8.7,14.0,97,0.00,BKN,,0.02,0.0,WeatherDisplay:10.37,2013-02-23 05:05:00,
2013-02-23 06:10:00,35.4,34.6,29.71,East,86,7.8,12.0,97,0.00,BKN,,0.02,0.0,WeatherDisplay:10.37,2013-02-23 05:10:00,
2013-02-23 06:15:00,35.4,34.6,29.71,East,93,8.0,18.0,97,0.00,BKN,,0.02,0.0,WeatherDisplay:10.37,2013-02-23 05:15:00,
2013-02-23 06:20:00,35.4,34.6,29.71,East,90,8.0,18.0,97,0.00,BKN,,0.02,0.0,WeatherDisplay:10.37,2013-02-23 05:20:00,
2013-02-23 06:25:00,35.4,34.6,29.72,East,91,7.9,11.5,97,0.00,BKN,,0.02,0.0,WeatherDisplay:10.37,2013-02-23 05:25:00,
2013-02-23 06:30:00,35.4,34.6,29.71,East,97,6.9,15.0,97,0.00,BKN,,0.02,0.0,WeatherDisplay:10.37,2013-02-23 05:30:00,
2013-02-23 06:35:00,35.4,34.6,29.72,SE,130,4.9,11.5,97,0.00,BKN,,0.02,0.0,WeatherDisplay:10.37,2013-02-23 05:35:00,
2013-02-23 06:38:00,35.4,34.6,29.72,East,86,11.5,19.6,97,0.00,BKN,,0.02,0.0,WeatherDisplay:10.37,2013-02-23 05:38:00,
2013-02-23 06:43:00,35.5,34.7,29.72,East,95,8.4,16.1,97,0.00,BKN,,0.02,0.0,WeatherDisplay:10.37,2013-02-23 05:43:00,
2013-02-23 06:48:00,35.5,34.7,29.72,ESE,115,9.9,16.1,97,0.00,BKN,,0.02,0.0,WeatherDisplay:10.37,2013-02-23 05:48:00,
2013-02-23 06:53:00,35.5,34.7,29.72,East,93,9.2,17.3,97,0.00,BKN,,0.02,5.0,WeatherDisplay:10.37,2013-02-23 05:53:00,
2013-02-23 06:58:00,35.6,34.8,29.72,East,95,7.7,15.0,97,0.00,BKN,,0.02,7.0,WeatherDisplay:10.37,2013-02-23 05:58:00,
2013-02-23 07:03:00,35.6,34.8,29.72,East,98,10.0,14.0,97,0.00,BKN,,0.02,9.0,WeatherDisplay:10.37,2013-02-23 06:03:00,
2013-02-23 07:08:00,35.6,34.8,29.72,ESE,115,8.6,18.4,97,0.00,BKN,,0.02,11.0,WeatherDisplay:10.37,2013-02-23 06:08:00,
2013-02-23 07:13:00,35.6,34.8,29.72,ESE,109,10.0,16.1,97,0.00,BKN,,0.02,12.0,WeatherDisplay:10.37,2013-02-23 06:13:00,
2013-02-23 07:18:00,35.7,34.9,29.72,East,89,7.7,21.0,97,0.00,BKN,,0.02,12.0,WeatherDisplay:10.37,2013-02-23 06:18:00,
2013-02-23 07:23:00,35.7,34.9,29.72,East,80,10.0,17.3,97,0.00,BKN,,0.02,14.0,WeatherDisplay:10.37,2013-02-23 06:23:00,
2013-02-23 07:29:00,35.7,34.9,29.72,ESE,113,8.4,17.3,97,0.00,BKN,,0.02,18.0,WeatherDisplay:10.37,2013-02-23 06:29:00,
2013-02-23 07:34:00,35.7,34.7,29.71,ESE,107,10.4,16.1,96,0.00,BKN,,0.02,21.0,WeatherDisplay:10.37,2013-02-23 06:34:00,
2013-02-23 07:39:00,35.8,34.8,29.71,ENE,65,11.7,19.6,96,0.00,BKN,,0.02,25.0,WeatherDisplay:10.37,2013-02-23 06:39:00,
2013-02-23 07:45:00,35.8,34.8,29.71,East,97,9.0,20.0,96,0.00,RA,,0.02,28.0,WeatherDisplay:10.37,2013-02-23 06:45:00,
2013-02-23 07:50:00,35.8,34.8,29.71,East,96,10.0,22.0,96,0.01,RA,,0.02,33.0,WeatherDisplay:10.37,2013-02-23 06:50:00,
2013-02-23 07:55:00,35.9,34.9,29.71,East,96,9.4,15.0,96,0.01,BKN,,0.02,39.0,WeatherDisplay:10.37,2013-02-23 06:55:00,
2013-02-23 08:00:00,35.9,34.9,29.71,East,82,11.5,16.1,96,0.01,BKN,,0.02,44.0,WeatherDisplay:10.37,2013-02-23 07:00:00,
2013-02-23 08:05:00,35.9,34.9,29.71,ESE,107,7.7,16.1,96,0.01,BKN,,0.02,47.0,WeatherDisplay:10.37,2013-02-23 07:05:00,
2013-02-23 08:10:00,36.0,35.0,29.70,ESE,111,9.3,16.1,96,0.01,BKN,,0.02,46.0,WeatherDisplay:10.37,2013-02-23 07:10:00,
2013-02-23 08:15:00,36.0,35.0,29.70,East,100,11.1,17.0,96,0.01,BKN,,0.02,49.0,WeatherDisplay:10.37,2013-02-23 07:15:00,
2013-02-23 08:20:00,36.0,34.7,29.70,ESE,117,11.5,19.6,95,0.01,BKN,,0.02,60.0,WeatherDisplay:10.37,2013-02-23 07:20:00,
2013-02-23 08:25:00,36.0,35.0,29.70,SE,131,9.2,13.0,96,0.01,BKN,,0.02,67.0,WeatherDisplay:10.37,2013-02-23 07:25:00,
2013-02-23 08:30:00,36.1,34.8,29.70,ESE,104,10.0,18.0,95,0.00,BKN,,0.02,72.0,WeatherDisplay:10.37,2013-02-23 07:30:00,
2013-02-23 08:35:00,36.1,34.8,29.69,ENE,70,12.4,20.7,95,0.01,BKN,,0.02,70.0,WeatherDisplay:10.37,2013-02-23 07:35:00,
2013-02-23 08:40:00,36.1,34.8,29.70,ESE,116,10.8,18.4,95,0.01,BKN,,0.02,65.0,WeatherDisplay:10.37,2013-02-23 07:40:00,
2013-02-23 08:45:00,36.1,34.8,29.69,East,98,11.9,20.7,95,0.00,BKN,,0.02,62.0,WeatherDisplay:10.37,2013-02-23 07:45:00,
2013-02-23 08:50:00,36.1,34.8,29.69,ESE,121,10.1,17.3,95,0.00,BKN,,0.02,63.0,WeatherDisplay:10.37,2013-02-23 07:50:00,
2013-02-23 08:55:00,36.2,34.9,29.69,East,82,11.9,19.6,95,0.00,BKN,,0.02,53.0,WeatherDisplay:10.37,2013-02-23 07:55:00,
2013-02-23 09:00:00,36.2,34.9,29.69,ESE,103,9.0,18.0,95,0.00,RA,,0.03,49.0,WeatherDisplay:10.37,2013-02-23 08:00:00,
2013-02-23 09:05:00,36.2,34.6,29.70,East,99,9.9,18.4,94,0.01,RA,,0.03,49.0,WeatherDisplay:10.37,2013-02-23 08:05:00,
2013-02-23 09:10:00,36.3,34.7,29.70,ESE,112,12.0,19.6,94,0.01,BKN,,0.03,49.0,WeatherDisplay:10.37,2013-02-23 08:10:00,
2013-02-23 09:15:00,36.3,34.7,29.70,ESE,115,8.2,20.7,94,0.01,BKN,,0.03,47.0,WeatherDisplay:10.37,2013-02-23 08:15:00,
2013-02-23 09:20:00,36.4,34.8,29.70,ESE,111,9.9,19.6,94,0.01,BKN,,0.03,49.0,WeatherDisplay:10.37,2013-02-23 08:20:00,
2013-02-23 09:25:00,36.5,34.9,29.70,East,83,9.8,19.0,94,0.01,BKN,,0.03,54.0,WeatherDisplay:10.37,2013-02-23 08:25:00,
2013-02-23 09:30:00,36.5,34.7,29.70,ESE,107,12.0,21.0,93,0.00,BKN,,0.03,58.0,WeatherDisplay:10.37,2013-02-23 08:30:00,
2013-02-23 09:35:00,36.6,34.8,29.70,ESE,123,10.4,16.1,93,0.01,BKN,,0.03,67.0,WeatherDisplay:10.37,2013-02-23 08:35:00,
2013-02-23 09:40:00,36.7,34.9,29.70,ESE,109,9.1,23.0,93,0.01,BKN,,0.03,65.0,WeatherDisplay:10.37,2013-02-23 08:40:00,
2013-02-23 09:45:00,36.8,34.7,29.70,ESE,119,9.6,18.4,92,0.01,BKN,,0.03,62.0,WeatherDisplay:10.37,2013-02-23 08:45:00,
2013-02-23 09:50:00,36.8,34.7,29.70,NE,47,11.8,18.4,92,0.01,BKN,,0.03,53.0,WeatherDisplay:10.37,2013-02-23 08:50:00,
2013-02-23 09:55:00,36.9,34.8,29.70,ENE,76,13.4,19.6,92,0.01,BKN,,0.03,56.0,WeatherDisplay:10.37,2013-02-23 08:55:00,
2013-02-23 10:00:00,36.9,34.8,29.70,East,95,10.0,20.0,92,0.00,BKN,,0.03,60.0,WeatherDisplay:10.37,2013-02-23 09:00:00,
2013-02-23 10:05:00,36.9,34.8,29.71,SE,128,12.5,21.9,92,0.00,BKN,,0.03,54.0,WeatherDisplay:10.37,2013-02-23 09:05:00,
2013-02-23 10:10:00,36.9,34.8,29.71,East,84,8.6,20.7,92,0.00,BKN,,0.03,54.0,WeatherDisplay:10.37,2013-02-23 09:10:00,
2013-02-23 10:15:00,37.0,34.9,29.71,ESE,103,9.5,17.3,92,0.00,BKN,,0.03,51.0,WeatherDisplay:10.37,2013-02-23 09:15:00,
2013-02-23 10:20:00,37.0,34.9,29.72,ESE,108,9.1,17.3,92,0.00,BKN,,0.03,46.0,WeatherDisplay:10.37,2013-02-23 09:20:00,
2013-02-23 10:25:00,37.0,34.9,29.72,ESE,102,9.8,19.6,92,0.00,BKN,,0.03,42.0,WeatherDisplay:10.37,2013-02-23 09:25:00,
2013-02-23 10:30:00,36.9,34.8,29.73,East,87,7.5,13.8,92,0.01,RA,,0.04,47.0,WeatherDisplay:10.37,2013-02-23 09:30:00,
2013-02-23 10:35:00,36.9,34.8,29.73,SE,131,7.7,14.0,92,0.01,RA,,0.05,53.0,WeatherDisplay:10.37,2013-02-23 09:35:00,
2013-02-23 10:41:00,36.9,34.8,29.74,SSE,164,3.0,8.1,92,0.02,RA,,0.06,44.0,WeatherDisplay:10.37,2013-02-23 09:41:00,
2013-02-23 10:46:00,36.8,34.7,29.74,South,172,3.9,11.5,92,0.03,RA,,0.06,49.0,WeatherDisplay:10.37,2013-02-23 09:46:00,
2013-02-23 10:51:00,36.8,34.7,29.74,South,171,3.0,6.9,92,0.04,RA,,0.07,51.0,WeatherDisplay:10.37,2013-02-23 09:51:00,
2013-02-23 10:57:00,36.7,34.6,29.75,SE,131,4.2,8.1,92,0.05,RA,,0.08,49.0,WeatherDisplay:10.37,2013-02-23 09:57:00,
2013-02-23 11:02:00,36.7,34.9,29.75,SE,124,4.7,8.1,93,0.06,RA,,0.09,47.0,WeatherDisplay:10.37,2013-02-23 10:02:00,
2013-02-23 11:07:00,36.7,34.9,29.75,SE,133,3.5,6.9,93,0.07,RA,,0.10,60.0,WeatherDisplay:10.37,2013-02-23 10:07:00,
2013-02-23 11:12:00,36.7,34.9,29.75,SSE,156,6.6,12.0,93,0.08,RA,,0.11,65.0,WeatherDisplay:10.37,2013-02-23 10:12:00,
2013-02-23 11:17:00,36.7,34.9,29.75,South,177,7.9,13.0,93,0.09,RA,,0.12,69.0,WeatherDisplay:10.37,2013-02-23 10:17:00,
2013-02-23 11:22:00,36.6,34.8,29.75,SE,136,5.1,10.4,93,0.10,RA,,0.13,67.0,WeatherDisplay:10.37,2013-02-23 10:22:00,
2013-02-23 11:27:00,36.6,34.8,29.75,ENE,68,4.4,7.0,93,0.11,RA,,0.14,65.0,WeatherDisplay:10.37,2013-02-23 10:27:00,
2013-02-23 11:32:00,36.6,35.0,29.75,ESE,114,4.0,9.2,94,0.11,RA,,0.15,69.0,WeatherDisplay:10.37,2013-02-23 10:32:00,
2013-02-23 11:37:00,36.6,34.8,29.75,SE,132,2.1,8.1,93,0.11,RA,,0.16,62.0,WeatherDisplay:10.37,2013-02-23 10:37:00,
2013-02-23 11:42:00,36.7,35.1,29.75,ESE,117,5.2,8.1,94,0.11,RA,,0.17,63.0,WeatherDisplay:10.37,2013-02-23 10:42:00,
2013-02-23 11:47:00,36.7,35.1,29.75,East,95,4.1,11.5,94,0.10,RA,,0.17,62.0,WeatherDisplay:10.37,2013-02-23 10:47:00,
2013-02-23 11:52:00,36.7,35.1,29.75,East,89,5.5,11.5,94,0.10,RA,,0.17,60.0,WeatherDisplay:10.37,2013-02-23 10:52:00,
2013-02-23 11:57:00,36.7,35.1,29.75,ESE,107,6.9,12.0,94,0.09,RA,,0.17,60.0,WeatherDisplay:10.37,2013-02-23 10:57:00,
2013-02-23 12:02:00,36.7,35.1,29.75,ENE,78,4.3,9.2,94,0.09,RA,,0.18,54.0,WeatherDisplay:10.37,2013-02-23 11:02:00,
2013-02-23 12:08:00,36.7,35.1,29.75,ESE,118,5.9,12.0,94,0.08,RA,,0.18,53.0,WeatherDisplay:10.37,2013-02-23 11:08:00,
2013-02-23 12:13:00,36.7,35.1,29.75,East,88,6.5,12.0,94,0.07,BKN,,0.18,62.0,WeatherDisplay:10.37,2013-02-23 11:13:00,
2013-02-23 12:18:00,36.7,35.1,29.75,SE,132,5.5,11.0,94,0.06,RA,,0.19,81.0,WeatherDisplay:10.37,2013-02-23 11:18:00,
2013-02-23 12:23:00,36.8,35.2,29.75,SE,135,6.5,10.4,94,0.06,RA,,0.20,77.0,WeatherDisplay:10.37,2013-02-23 11:23:00,
2013-02-23 12:28:00,36.9,35.3,29.75,ESE,114,6.4,11.5,94,0.06,RA,,0.20,69.0,WeatherDisplay:10.37,2013-02-23 11:28:00,
2013-02-23 12:33:00,37.0,35.4,29.75,East,96,3.1,9.2,94,0.06,RA,,0.21,40.0,WeatherDisplay:10.37,2013-02-23 11:33:00,
2013-02-23 12:38:00,37.0,35.4,29.75,ESE,105,4.3,11.5,94,0.06,RA,,0.21,33.0,WeatherDisplay:10.37,2013-02-23 11:38:00,
2013-02-23 12:43:00,37.0,35.4,29.76,SE,144,5.9,9.2,94,0.06,RA,,0.22,37.0,WeatherDisplay:10.37,2013-02-23 11:43:00,
2013-02-23 12:48:00,37.0,35.4,29.76,East,93,2.2,10.4,94,0.06,RA,,0.22,53.0,WeatherDisplay:10.37,2013-02-23 11:48:00,
2013-02-23 12:53:00,37.1,35.5,29.76,ENE,78,2.7,8.1,94,0.06,RA,,0.23,42.0,WeatherDisplay:10.37,2013-02-23 11:53:00,
2013-02-23 12:58:00,37.0,35.4,29.75,ESE,119,7.5,11.0,94,0.06,RA,,0.23,33.0,WeatherDisplay:10.37,2013-02-23 11:58:00,
2013-02-23 13:03:00,37.0,35.4,29.75,SE,146,2.5,9.2,94,0.06,RA,,0.24,42.0,WeatherDisplay:10.37,2013-02-23 12:03:00,
2013-02-23 13:08:00,37.0,35.4,29.75,ESE,121,3.2,11.5,94,0.06,RA,,0.24,46.0,WeatherDisplay:10.37,2013-02-23 12:08:00,
2013-02-23 13:13:00,37.0,35.4,29.75,SE,134,5.8,10.4,94,0.06,RA,,0.24,33.0,WeatherDisplay:10.37,2013-02-23 12:13:00,
2013-02-23 13:18:00,36.9,35.3,29.75,ENE,69,3.7,8.0,94,0.06,RA,,0.24,37.0,WeatherDisplay:10.37,2013-02-23 12:18:00,
2013-02-23 13:23:00,36.9,35.6,29.75,East,80,3.0,7.0,95,0.06,RA,,0.25,46.0,WeatherDisplay:10.37,2013-02-23 12:23:00,
2013-02-23 13:28:00,36.9,35.6,29.75,East,80,4.5,8.1,95,0.05,RA,,0.25,46.0,WeatherDisplay:10.37,2013-02-23 12:28:00,
2013-02-23 13:33:00,36.9,35.6,29.75,ESE,113,4.6,9.0,95,0.05,RA,,0.26,42.0,WeatherDisplay:10.37,2013-02-23 12:33:00,
2013-02-23 13:38:00,36.9,35.6,29.75,ESE,113,3.7,9.2,95,0.05,RA,,0.26,49.0,WeatherDisplay:10.37,2013-02-23 12:38:00,
2013-02-23 13:43:00,36.9,35.6,29.75,East,100,6.1,9.0,95,0.04,BKN,,0.26,51.0,WeatherDisplay:10.37,2013-02-23 12:43:00,
2013-02-23 13:48:00,36.9,35.6,29.75,ESE,118,5.9,10.4,95,0.05,RA,,0.27,42.0,WeatherDisplay:10.37,2013-02-23 12:48:00,
2013-02-23 13:53:00,37.0,35.7,29.75,ESE,109,3.5,6.9,95,0.04,RA,,0.27,44.0,WeatherDisplay:10.37,2013-02-23 12:53:00,
2013-02-23 13:58:00,37.0,35.7,29.75,East,90,2.6,6.9,95,0.04,BKN,,0.27,42.0,WeatherDisplay:10.37,2013-02-23 12:58:00,
2013-02-23 14:03:00,37.1,35.8,29.75,East,98,3.3,6.9,95,0.03,BKN,,0.27,40.0,WeatherDisplay:10.37,2013-02-23 13:03:00,
2013-02-23 14:08:00,37.1,35.8,29.75,East,92,3.3,9.0,95,0.03,BKN,,0.27,35.0,WeatherDisplay:10.37,2013-02-23 13:08:00,
2013-02-23 14:13:00,37.2,35.9,29.76,ESE,106,4.8,8.1,95,0.02,BKN,,0.27,37.0,WeatherDisplay:10.37,2013-02-23 13:13:00,
2013-02-23 14:18:00,37.3,36.0,29.76,ESE,105,2.5,5.8,95,0.02,BKN,,0.27,33.0,WeatherDisplay:10.37,2013-02-23 13:18:00,
2013-02-23 14:23:00,37.4,36.1,29.76,ESE,109,4.1,8.1,95,0.02,BKN,,0.27,21.0,WeatherDisplay:10.37,2013-02-23 13:23:00,
2013-02-23 14:28:00,37.4,36.1,29.76,ESE,103,1.4,5.8,95,0.02,BKN,,0.27,21.0,WeatherDisplay:10.37,2013-02-23 13:28:00,
2013-02-23 14:33:00,37.5,36.2,29.76,ESE,117,2.9,5.8,95,0.01,BKN,,0.27,25.0,WeatherDisplay:10.37,2013-02-23 13:33:00,
2013-02-23 14:38:00,37.6,36.3,29.77,SSE,155,1.2,4.6,95,0.01,BKN,,0.27,28.0,WeatherDisplay:10.37,2013-02-23 13:38:00,
2013-02-23 14:43:00,37.6,36.3,29.77,ESE,113,2.4,4.0,95,0.01,BKN,,0.27,26.0,WeatherDisplay:10.37,2013-02-23 13:43:00,
2013-02-23 14:48:00,37.8,36.8,29.77,ESE,109,4.3,8.1,96,0.00,BKN,,0.27,26.0,WeatherDisplay:10.37,2013-02-23 13:48:00,
2013-02-23 14:53:00,37.8,36.8,29.77,ESE,111,5.3,10.4,96,0.00,BKN,,0.27,25.0,WeatherDisplay:10.37,2013-02-23 13:53:00,
2013-02-23 14:58:00,38.0,37.0,29.77,ESE,109,5.6,9.2,96,0.00,BKN,,0.27,26.0,WeatherDisplay:10.37,2013-02-23 13:58:00,
2013-02-23 15:03:00,38.1,37.1,29.78,SE,126,6.7,9.2,96,0.00,BKN,,0.27,19.0,WeatherDisplay:10.37,2013-02-23 14:03:00,
2013-02-23 15:08:00,38.1,37.1,29.78,ESE,105,3.2,10.4,96,0.00,BKN,,0.27,12.0,WeatherDisplay:10.37,2013-02-23 14:08:00,
2013-02-23 15:13:00,38.1,37.1,29.78,ESE,109,3.1,8.1,96,0.00,OVC,,0.27,12.0,WeatherDisplay:10.37,2013-02-23 14:13:00,
2013-02-23 15:18:00,38.2,37.2,29.78,ENE,76,4.0,7.0,96,0.00,OVC,,0.27,11.0,WeatherDisplay:10.37,2013-02-23 14:18:00,
2013-02-23 15:23:00,38.2,37.2,29.79,East,98,4.8,9.2,96,0.00,OVC,,0.27,12.0,WeatherDisplay:10.37,2013-02-23 14:23:00,
2013-02-23 15:28:00,38.2,37.2,29.78,ESE,117,3.5,9.2,96,0.00,OVC,,0.27,12.0,WeatherDisplay:10.37,2013-02-23 14:28:00,
2013-02-23 15:33:00,38.3,37.3,29.78,East,95,2.8,9.2,96,0.00,BKN,,0.27,12.0,WeatherDisplay:10.37,2013-02-23 14:33:00,
2013-02-23 15:38:00,38.3,37.3,29.78,SE,132,3.3,6.9,96,0.00,BKN,,0.27,11.0,WeatherDisplay:10.37,2013-02-23 14:38:00,
2013-02-23 15:43:00,38.3,37.3,29.78,ESE,111,6.6,11.5,96,0.00,OVC,,0.27,11.0,WeatherDisplay:10.37,2013-02-23 14:43:00,
2013-02-23 15:48:00,38.3,37.3,29.78,East,99,5.6,9.2,96,0.00,OVC,,0.27,9.0,WeatherDisplay:10.37,2013-02-23 14:48:00,
2013-02-23 15:53:00,38.3,37.3,29.78,ESE,109,3.8,9.2,96,0.00,OVC,,0.27,7.0,WeatherDisplay:10.37,2013-02-23 14:53:00,
2013-02-23 15:58:00,38.3,37.3,29.78,East,94,3.7,7.0,96,0.00,OVC,,0.27,7.0,WeatherDisplay:10.37,2013-02-23 14:58:00,
2013-02-23 16:03:00,38.3,37.3,29.78,ESE,104,4.1,7.0,96,0.00,OVC,,0.27,7.0,WeatherDisplay:10.37,2013-02-23 15:03:00,
2013-02-23 16:08:00,38.3,37.3,29.78,SE,128,3.5,9.2,96,0.00,OVC,,0.27,5.0,WeatherDisplay:10.37,2013-02-23 15:08:00,
2013-02-23 16:13:00,38.4,37.4,29.78,ESE,123,6.8,10.0,96,0.00,OVC,,0.27,7.0,WeatherDisplay:10.37,2013-02-23 15:13:00,
2013-02-23 16:18:00,38.5,37.5,29.78,ESE,121,4.0,7.0,96,0.00,BKN,,0.27,7.0,WeatherDisplay:10.37,2013-02-23 15:18:00,
2013-02-23 16:23:00,38.5,37.5,29.78,East,95,5.3,10.4,96,0.00,BKN,,0.27,7.0,WeatherDisplay:10.37,2013-02-23 15:23:00,
2013-02-23 16:28:00,38.6,37.6,29.78,SE,134,5.4,13.0,96,0.00,BKN,,0.27,5.0,WeatherDisplay:10.37,2013-02-23 15:28:00,
2013-02-23 16:33:00,38.7,37.7,29.78,ESE,103,5.1,9.2,96,0.00,BKN,,0.27,5.0,WeatherDisplay:10.37,2013-02-23 15:33:00,
2013-02-23 16:38:00,38.7,37.7,29.78,East,90,3.0,8.1,96,0.00,BKN,,0.27,0.0,WeatherDisplay:10.37,2013-02-23 15:38:00,
2013-02-23 16:43:00,38.8,37.8,29.78,ESE,107,6.9,9.2,96,0.00,BKN,,0.27,0.0,WeatherDisplay:10.37,2013-02-23 15:43:00,
2013-02-23 16:48:00,38.9,37.9,29.78,ESE,104,3.1,10.4,96,0.00,BKN,,0.27,0.0,WeatherDisplay:10.37,2013-02-23 15:48:00,
2013-02-23 16:53:00,38.9,37.9,29.78,SE,126,5.9,11.0,96,0.00,BKN,,0.27,0.0,WeatherDisplay:10.37,2013-02-23 15:53:00,
2013-02-23 16:58:00,39.0,38.0,29.78,ESE,118,6.7,9.2,96,0.00,BKN,,0.27,0.0,WeatherDisplay:10.37,2013-02-23 15:58:00,
2013-02-23 17:03:00,39.0,38.0,29.78,ESE,110,6.0,9.2,96,0.00,BKN,,0.27,0.0,WeatherDisplay:10.37,2013-02-23 16:03:00,
2013-02-23 17:08:00,39.1,38.1,29.79,East,88,4.7,8.1,96,0.00,BKN,,0.27,0.0,WeatherDisplay:10.37,2013-02-23 16:08:00,
2013-02-23 17:13:00,39.1,38.1,29.79,SE,128,5.7,9.2,96,0.00,BKN,,0.27,0.0,WeatherDisplay:10.37,2013-02-23 16:13:00,
2013-02-23 17:18:00,39.2,38.2,29.79,ESE,102,5.0,9.2,96,0.00,BKN,,0.27,0.0,WeatherDisplay:10.37,2013-02-23 16:18:00,
2013-02-23 17:23:00,39.2,38.2,29.79,South,181,4.4,9.0,96,0.00,BKN,,0.27,0.0,WeatherDisplay:10.37,2013-02-23 16:23:00,
2013-02-23 17:28:00,39.3,38.3,29.79,SE,126,4.8,10.0,96,0.00,BKN,,0.27,0.0,WeatherDisplay:10.37,2013-02-23 16:28:00,
2013-02-23 17:33:00,39.4,38.4,29.79,SE,141,4.3,8.1,96,0.00,BKN,,0.27,0.0,WeatherDisplay:10.37,2013-02-23 16:33:00,
2013-02-23 17:38:00,39.4,38.4,29.80,SE,130,5.8,8.1,96,0.00,BKN,,0.27,0.0,WeatherDisplay:10.37,2013-02-23 16:38:00,
2013-02-23 17:43:00,39.5,38.5,29.80,East,90,3.9,9.2,96,0.00,BKN,,0.27,0.0,WeatherDisplay:10.37,2013-02-23 16:43:00,
2013-02-23 17:48:00,39.6,38.6,29.80,SE,132,4.9,8.1,96,0.00,BKN,,0.27,0.0,WeatherDisplay:10.37,2013-02-23 16:48:00,
2013-02-23 17:53:00,39.6,38.6,29.80,ESE,114,6.5,10.4,96,0.00,BKN,,0.27,0.0,WeatherDisplay:10.37,2013-02-23 16:53:00,
2013-02-23 17:58:00,39.7,38.7,29.80,SE,143,5.7,10.4,96,0.00,BKN,,0.27,0.0,WeatherDisplay:10.37,2013-02-23 16:58:00,
2013-02-23 18:03:00,39.8,38.8,29.80,ESE,122,6.4,11.5,96,0.00,BKN,,0.27,0.0,WeatherDisplay:10.37,2013-02-23 17:03:00,
2013-02-23 18:08:00,39.8,38.8,29.80,East,89,5.1,9.2,96,0.00,BKN,,0.27,0.0,WeatherDisplay:10.37,2013-02-23 17:08:00,
2013-02-23 18:13:00,39.9,38.9,29.80,SE,132,4.0,8.1,96,0.00,BKN,,0.27,0.0,WeatherDisplay:10.37,2013-02-23 17:13:00,
2013-02-23 18:18:00,39.9,38.9,29.80,ESE,119,2.9,10.4,96,0.00,BKN,,0.27,0.0,WeatherDisplay:10.37,2013-02-23 17:18:00,
2013-02-23 18:23:00,39.9,38.9,29.80,SE,133,3.5,7.0,96,0.00,BKN,,0.27,0.0,WeatherDisplay:10.37,2013-02-23 17:23:00,
2013-02-23 18:28:00,39.9,38.9,29.81,ESE,111,4.4,6.9,96,0.00,BKN,,0.27,0.0,WeatherDisplay:10.37,2013-02-23 17:28:00,
2013-02-23 18:33:00,39.8,38.8,29.81,East,97,3.6,8.0,96,0.00,BKN,,0.27,0.0,WeatherDisplay:10.37,2013-02-23 17:33:00,
2013-02-23 18:38:00,39.9,38.9,29.81,ESE,119,3.7,7.0,96,0.00,BKN,,0.27,0.0,WeatherDisplay:10.37,2013-02-23 17:38:00,
2013-02-23 18:43:00,39.9,38.9,29.81,ESE,119,1.4,5.8,96,0.00,BKN,,0.27,0.0,WeatherDisplay:10.37,2013-02-23 17:43:00,
2013-02-23 18:48:00,40.0,39.0,29.80,SE,126,2.2,9.2,96,0.00,BKN,,0.27,0.0,WeatherDisplay:10.37,2013-02-23 17:48:00,
2013-02-23 18:53:00,40.0,39.0,29.80,SE,128,4.7,8.1,96,0.00,BKN,,0.27,0.0,WeatherDisplay:10.37,2013-02-23 17:53:00,
2013-02-23 18:58:00,40.1,39.1,29.80,East,88,3.0,7.0,96,0.00,BKN,,0.27,0.0,WeatherDisplay:10.37,2013-02-23 17:58:00,
2013-02-23 19:03:00,40.0,38.7,29.80,ESE,109,4.3,7.0,95,0.00,BKN,,0.27,0.0,WeatherDisplay:10.37,2013-02-23 18:03:00,
2013-02-23 19:08:00,40.0,38.7,29.81,ESE,121,4.3,8.1,95,0.00,BKN,,0.27,0.0,WeatherDisplay:10.37,2013-02-23 18:08:00,
2013-02-23 19:13:00,40.0,38.7,29.81,ESE,107,3.4,9.2,95,0.00,BKN,,0.27,0.0,WeatherDisplay:10.37,2013-02-23 18:13:00,
2013-02-23 19:18:00,40.1,39.1,29.81,SE,130,4.2,8.1,96,0.00,BKN,,0.27,0.0,WeatherDisplay:10.37,2013-02-23 18:18:00,
2013-02-23 19:23:00,40.1,39.1,29.81,ESE,103,6.0,9.2,96,0.00,BKN,,0.27,0.0,WeatherDisplay:10.37,2013-02-23 18:23:00,
2013-02-23 19:28:00,40.1,39.1,29.81,ENE,77,2.7,9.2,96,0.00,BKN,,0.27,0.0,WeatherDisplay:10.37,2013-02-23 18:28:00,
2013-02-23 19:33:00,40.1,39.1,29.81,East,90,5.2,11.5,96,0.00,BKN,,0.27,0.0,WeatherDisplay:10.37,2013-02-23 18:33:00,
2013-02-23 19:38:00,40.1,39.1,29.81,East,86,7.3,10.4,96,0.00,BKN,,0.27,0.0,WeatherDisplay:10.37,2013-02-23 18:38:00,
2013-02-23 19:43:00,40.1,39.1,29.81,East,96,4.6,10.4,96,0.00,BKN,,0.27,0.0,WeatherDisplay:10.37,2013-02-23 18:43:00,
2013-02-23 19:48:00,40.1,38.8,29.81,East,91,5.4,10.4,95,0.00,BKN,,0.27,0.0,WeatherDisplay:10.37,2013-02-23 18:48:00,
2013-02-23 19:53:00,40.2,39.2,29.81,East,95,4.2,12.7,96,0.00,BKN,,0.27,0.0,WeatherDisplay:10.37,2013-02-23 18:53:00,
2013-02-23 19:58:00,40.2,39.2,29.81,East,94,7.8,13.0,96,0.00,BKN,,0.27,0.0,WeatherDisplay:10.37,2013-02-23 18:58:00,
2013-02-23 20:03:00,40.3,39.3,29.81,ENE,67,6.4,11.5,96,0.00,BKN,,0.27,0.0,WeatherDisplay:10.37,2013-02-23 19:03:00,
2013-02-23 20:08:00,40.2,38.9,29.81,ENE,77,6.3,10.4,95,0.00,BKN,,0.27,0.0,WeatherDisplay:10.37,2013-02-23 19:08:00,
2013-02-23 20:13:00,40.2,38.9,29.81,East,83,6.7,11.5,95,0.00,BKN,,0.27,0.0,WeatherDisplay:10.37,2013-02-23 19:13:00,
2013-02-23 20:18:00,40.2,38.9,29.81,ESE,107,5.1,10.4,95,0.00,BKN,,0.27,0.0,WeatherDisplay:10.37,2013-02-23 19:18:00,
2013-02-23 20:23:00,40.1,38.8,29.81,ESE,109,4.4,8.1,95,0.00,BKN,,0.27,0.0,WeatherDisplay:10.37,2013-02-23 19:23:00,
2013-02-23 20:28:00,40.1,38.8,29.82,SE,131,4.5,9.2,95,0.00,BKN,,0.27,0.0,WeatherDisplay:10.37,2013-02-23 19:28:00,
2013-02-23 20:33:00,40.1,39.1,29.82,ESE,109,2.7,10.4,96,0.00,BKN,,0.27,0.0,WeatherDisplay:10.37,2013-02-23 19:33:00,
2013-02-23 20:38:00,40.2,39.2,29.82,ESE,103,1.5,6.9,96,0.00,BKN,,0.27,0.0,WeatherDisplay:10.37,2013-02-23 19:38:00,
2013-02-23 20:43:00,40.2,39.2,29.83,ESE,122,4.0,9.2,96,0.00,BKN,,0.27,0.0,WeatherDisplay:10.37,2013-02-23 19:43:00,
2013-02-23 20:48:00,40.3,39.3,29.83,SE,137,2.1,5.0,96,0.00,BKN,,0.27,0.0,WeatherDisplay:10.37,2013-02-23 19:48:00,
2013-02-23 20:53:00,40.3,39.3,29.83,ESE,123,2.8,8.1,96,0.00,BKN,,0.27,0.0,WeatherDisplay:10.37,2013-02-23 19:53:00,
2013-02-23 20:58:00,40.4,39.4,29.83,SE,131,2.0,3.5,96,0.00,BKN,,0.27,0.0,WeatherDisplay:10.37,2013-02-23 19:58:00,
2013-02-23 21:03:00,40.4,39.4,29.83,East,90,1.1,5.8,96,0.00,BKN,,0.27,0.0,WeatherDisplay:10.37,2013-02-23 20:03:00,
2013-02-23 21:08:00,40.4,39.4,29.83,SSE,147,2.3,6.0,96,0.00,BKN,,0.27,0.0,WeatherDisplay:10.37,2013-02-23 20:08:00,
2013-02-23 21:13:00,40.4,39.1,29.83,SE,138,2.1,4.6,95,0.00,BKN,,0.27,0.0,WeatherDisplay:10.37,2013-02-23 20:13:00,
2013-02-23 21:18:00,40.4,39.1,29.83,East,94,1.0,4.6,95,0.00,BKN,,0.27,0.0,WeatherDisplay:10.37,2013-02-23 20:18:00,
2013-02-23 21:23:00,40.3,39.0,29.83,ESE,107,4.6,8.1,95,0.00,BKN,,0.27,0.0,WeatherDisplay:10.37,2013-02-23 20:23:00,
2013-02-23 21:28:00,40.3,39.0,29.83,East,86,4.8,7.0,95,0.00,BKN,,0.27,0.0,WeatherDisplay:10.37,2013-02-23 20:28:00,
2013-02-23 21:33:00,40.3,39.0,29.83,East,82,2.4,6.9,95,0.00,BKN,,0.27,0.0,WeatherDisplay:10.37,2013-02-23 20:33:00,
2013-02-23 21:38:00,40.3,39.0,29.83,ENE,67,2.1,6.9,95,0.00,BKN,,0.27,0.0,WeatherDisplay:10.37,2013-02-23 20:38:00,
2013-02-23 21:43:00,40.3,39.0,29.83,East,96,4.3,7.0,95,0.00,BKN,,0.27,0.0,WeatherDisplay:10.37,2013-02-23 20:43:00,
2013-02-23 21:48:00,40.5,39.4,29.83,ENE,71,0.4,3.5,96,0.00,BKN,,0.27,0.0,WeatherDisplay:10.37,2013-02-23 20:48:00,
2013-02-23 21:53:00,40.6,39.5,29.82,ESE,105,4.7,12.7,96,0.00,BKN,,0.27,0.0,WeatherDisplay:10.37,2013-02-23 20:53:00,
2013-02-23 21:58:00,40.7,39.6,29.82,East,98,2.8,7.0,96,0.00,BKN,,0.27,0.0,WeatherDisplay:10.37,2013-02-23 20:58:00,
2013-02-23 22:03:00,40.7,39.6,29.82,East,101,3.8,5.0,96,0.00,BKN,,0.27,0.0,WeatherDisplay:10.37,2013-02-23 21:03:00,
2013-02-23 22:08:00,40.8,39.5,29.82,ESE,116,6.2,13.0,95,0.00,BKN,,0.27,0.0,WeatherDisplay:10.37,2013-02-23 21:08:00,
2013-02-23 22:13:00,40.9,39.6,29.82,East,83,3.9,6.0,95,0.00,BKN,,0.27,0.0,WeatherDisplay:10.37,2013-02-23 21:13:00,
2013-02-23 22:18:00,40.9,39.6,29.82,SSE,149,5.7,10.4,95,0.00,BKN,,0.27,0.0,WeatherDisplay:10.37,2013-02-23 21:18:00,
2013-02-23 22:23:00,41.1,39.8,29.82,ESE,113,8.6,14.0,95,0.00,BKN,,0.27,0.0,WeatherDisplay:10.37,2013-02-23 21:23:00,
2013-02-23 22:28:00,41.4,40.1,29.82,SE,140,5.4,11.5,95,0.00,BKN,,0.27,0.0,WeatherDisplay:10.37,2013-02-23 21:28:00,
2013-02-23 22:33:00,41.5,40.2,29.82,South,169,7.2,11.5,95,0.01,RA,,0.28,0.0,WeatherDisplay:10.37,2013-02-23 21:33:00,
2013-02-23 22:38:00,41.6,40.0,29.82,SSE,147,6.1,9.2,94,0.01,RA,,0.28,0.0,WeatherDisplay:10.37,2013-02-23 21:38:00,
2013-02-23 22:43:00,41.6,40.0,29.82,SSE,159,3.0,5.8,94,0.01,BKN,,0.28,0.0,WeatherDisplay:10.37,2013-02-23 21:43:00,
2013-02-23 22:48:00,41.5,39.9,29.82,East,81,4.2,6.9,94,0.01,BKN,,0.28,0.0,WeatherDisplay:10.37,2013-02-23 21:48:00,
2013-02-23 22:53:00,41.4,39.5,29.82,East,101,4.0,6.0,93,0.01,BKN,,0.28,0.0,WeatherDisplay:10.37,2013-02-23 21:53:00,
2013-02-23 22:58:00,41.2,39.3,29.82,East,89,4.2,8.1,93,0.01,BKN,,0.28,0.0,WeatherDisplay:10.37,2013-02-23 21:58:00,
2013-02-23 23:03:00,41.1,39.5,29.82,ESE,119,2.1,9.2,94,0.02,RA,,0.28,0.0,WeatherDisplay:10.37,2013-02-23 22:03:00,
2013-02-23 23:08:00,41.1,39.5,29.82,East,85,3.2,7.0,94,0.02,RA,,0.28,0.0,WeatherDisplay:10.37,2013-02-23 22:08:00,
2013-02-23 23:13:00,41.1,39.5,29.82,ESE,115,4.4,8.1,94,0.02,BKN,,0.28,0.0,WeatherDisplay:10.37,2013-02-23 22:13:00,
2013-02-23 23:18:00,41.1,39.5,29.82,ESE,112,3.8,8.1,94,0.02,RA,,0.29,0.0,WeatherDisplay:10.37,2013-02-23 22:18:00,
2013-02-23 23:23:00,41.1,39.5,29.82,ESE,119,5.2,11.5,94,0.03,RA,,0.30,0.0,WeatherDisplay:10.37,2013-02-23 22:23:00,
2013-02-23 23:28:00,41.1,39.5,29.82,ESE,123,4.2,8.1,94,0.04,RA,,0.31,0.0,WeatherDisplay:10.37,2013-02-23 22:28:00,
2013-02-23 23:33:00,41.1,39.5,29.82,East,95,6.5,11.5,94,0.03,RA,,0.31,0.0,WeatherDisplay:10.37,2013-02-23 22:33:00,
2013-02-23 23:38:00,41.1,39.5,29.82,East,80,9.7,15.0,94,0.04,RA,,0.31,0.0,WeatherDisplay:10.37,2013-02-23 22:38:00,
2013-02-23 23:43:00,41.1,39.5,29.82,East,92,7.0,16.1,94,0.05,RA,,0.32,0.0,WeatherDisplay:10.37,2013-02-23 22:43:00,
2013-02-23 23:48:00,41.2,39.9,29.81,East,100,9.6,14.0,95,0.05,RA,,0.32,0.0,WeatherDisplay:10.37,2013-02-23 22:48:00,
2013-02-23 23:53:00,41.3,40.0,29.82,SE,140,6.4,12.7,95,0.06,RA,,0.33,0.0,WeatherDisplay:10.37,2013-02-23 22:53:00,
2013-02-23 23:58:00,41.5,40.2,29.82,East,100,10.1,15.0,95,0.06,RA,,0.33,0.0,WeatherDisplay:10.37,2013-02-23 22:58:00,